SCP
-0 0 -0 -0 -1 -1 -1 -1 -0 -0 -0 -0 -0 -0 -0 -0 -0 -0 -0 -0 -0 -0 -0 -0 -0 -0 -0 0 0 0 0 0 0 0 -0 -0 -0 -0 -0 -0 -0 0 0
0 0 -0 -0 -1 -1 -1 -1 -1 -0 -0 -0 -0 -0 -0 -0 -0 -0 -0 -0 -0 -0 -0 -0 -0 -0 -0 0 0 0 0 0 0 0 0 0 0 -0 -0 -0 0 0 0
0 0 0 0 -0 -1 -1 -1 -1 -0 -0 -0 -0 -0 -0 -0 -0 -0 0 0 0 -0 -0 -0 -0 -0 0 0 0 0 0 0 0 0 0 -0 -0 0 0 -0 0 0 0
0 0 0 0 0 -0 -0 -1 -1 -0 -0 -0 -0 -0 -0 -0 -0 -0 -0 -0 -0 -0 -0 0 0 -0 -0 -0 -0 -0 -0 -0 -0 -0 -0 -0 -0 0 0 0 0 0 0
1 1 0 -0 0 0 -0 -0 -0 -0 -0 -0 -0 -0 -0 -0 -0 0 0 0 0 0 -0 0 0 -0 -0 -0 -0 -0 -0 -0 -0 -0 -0 0 -0 0 0 0 0 0 0
2 1 1 0 0 0 0 0 -0 -0 -0 -0 -0 -0 -0 -0 0 0 0 0 0 0 0 -0 -0 -0 -0 -0 -0 -0 -0 -0 -0 -0 -0 0 0 0 0 0 0 0 0
1 2 1 1 1 1 0 0 0 0 0 0 -0 -0 -0 -0 0 0 0 0 0 0 0 -0 -0 -0 -0 -0 -0 -0 -0 -0 -0 -0 -0 0 0 0 0 0 0 0 0
1 2 2 1 1 1 0 0 0 0 0 0 0 0 0 0 0 0 0 0 0 0 0 -0 -0 -0 -0 -0 -0 -0 -0 -0 -0 -0 -0 0 0 0 0 0 0 0 0
1 2 2 2 1 1 1 1 0 0 0 0 0 0 0 0 0 0 0 0 0 0 0 -0 -0 -0 -0 -0 -0 -0 -0 -0 -0 0 0 0 0 0 0 0 0 0 0
1 1 2 2 2 2 1 1 1 0 0 0 0 0 0 0 0 0 0 0 0 0 0 0 -0 -0 -0 -0 -0 -0 -0 -0 -0 -0 0 0 0 0 0 0 0 0 0
2 2 2 2 2 2 1 1 1 1 1 1 0 0 0 0 0 0 0 0 0 0 0 0 0 -0 -0 -0 -0 -0 -0 0 0 -0 0 -0 0 0 0 0 0 0 0
3 3 3 3 2 2 2 2 1 1 1 1 1 0 0 0 0 0 0 0 0 0 0 0 0 0 0 0 0 0 0 0 0 0 0 0 0 0 0 0 0 0 0
3 3 2 2 2 1 2 2 2 1 1 1 0 0 0 0 0 0 0 0 0 0 0 0 0 0 0 0 0 0 0 0 0 0 0 0 0 1 1 0 0 0 0
2 2 1 1 1 1 1 2 2 1 1 1 1 0 0 0 0 0 0 0 0 0 0 0 0 0 0 0 0 0 0 0 0 0 0 0 1 1 1 0 0 0 0
1 1 0 1 1 2 0 0 1 1 1 1 1 1 0 0 0 0 0 0 0 0 0 0 0 0 0 0 0 0 0 0 0 0 0 0 1 1 1 0 0 0 0
1 1 0 0 1 0 0 0 0 0 0 0 0 0 0 0 0 0 0 0 0 0 0 0 0 0 0 0 0 0 0 0 0 0 0 0 1 0 0 1 1 1 1
0 0 0 0 0 0 0 -0 1 -0 0 -0 0 0 0 0 0 0 0 0 0 0 1 1 0 0 0 0 0 0 0 0 0 0 0 0 0 0 0 0 0 0 1
0 0 0 0 0 0 0 0 0 0 0 0 0 0 1 1 0 0 0 0 1 0 0 0 0 0 0 0 0 0 -0 0 0 0 0 0 0 0 0 0 0 0 0
0 0 0 0 0 0 0 0 0 0 0 1 0 1 1 1 1 1 1 0 0 0 0 0 0 0 0 0 0 0 0 0 0 0 0 0 0 0 0 0 0 0 -0
0 -0 -0 -0 -0 0 0 0 -0 0 0 0 0 0 1 1 1 0 0 0 0 0 0 0 0 0 0 0 0 0 0 0 0 0 0 0 0 0 0 0 0 1 1
0 0 -0 -0 0 0 0 -0 -0 0 0 1 1 1 1 1 0 0 0 0 0 0 0 0 0 0 0 0 0 0 0 0 0 0 0 0 0 0 0 0 0 0 0
0 0 0 -0 0 0 0 0 0 1 0 1 1 1 1 1 0 0 0 0 0 0 0 0 0 0 0 0 0 0 0 0 0 0 0 0 0 0 0 0 0 0 0
2 1 1 1 0 0 1 0 0 0 1 1 0 0 0 1 1 0 0 0 0 0 0 0 0 0 0 0 0 0 0 0 0 0 0 0 0 0 0 0 -0 0 0
0 0 0 0 0 1 1 1 0 0 0 0 0 0 0 0 0 0 0 0 0 0 0 0 0 0 0 0 0 0 0 0 0 0 0 0 0 0 0 0 0 0 0
0 0 0 0 0 0 0 0 0 0 0 0 0 0 0 0 0 0 0 0 0 0 0 0 0 0 0 0 0 0 0 0 0 0 0 0 0 0 0 0 0 0 0
0 0 0 0 0 0 0 0 0 0 0 0 0 0 0 0 0 0 0 0 0 0 0 0 0 0 0 0 0 0 0 0 1 1 0 0 0 0 -0 -0 0 0 0
Wind_Speed_500mb
54 57 56 55 53 51 48 42 37 33 29 27 30 35 32 30 30 30 32 36 36 32 29 28 26 24 21 20 20 21 22 23 23 23 22 22 23 26 27 28 28 24 25
51 57 57 56 53 50 47 43 38 34 29 27 28 30 30 32 32 33 35 36 33 28 26 26 25 25 24 24 25 26 26 27 28 29 27 24 26 26 26 27 26 25 25
54 56 57 55 52 48 46 43 39 34 28 24 25 27 30 31 32 34 36 34 30 25 23 23 24 26 26 26 27 27 30 33 33 33 33 27 25 23 24 25 24 24 24
48 51 56 55 50 47 44 41 38 33 29 24 22 23 26 29 32 33 34 31 29 25 22 22 23 26 27 28 29 32 34 35 29 23 23 26 22 20 19 21 23 24 24
46 52 54 57 52 47 44 40 36 32 28 23 21 23 27 28 31 31 31 27 24 21 21 23 24 26 28 29 33 38 33 27 21 19 20 19 17 17 12 16 17 21 22
46 55 55 56 53 49 45 41 37 33 30 26 21 20 24 27 29 29 28 27 24 21 19 20 22 25 27 30 37 36 32 24 19 16 14 10 14 11 7 9 12 15 16
48 54 56 55 52 48 44 40 37 34 30 26 20 18 19 23 26 26 26 23 20 18 18 20 22 24 25 30 36 35 29 21 15 10 12 10 8 6 4 2 3 8 10
31 52 55 55 52 46 40 36 34 31 29 27 21 18 18 21 22 23 21 18 16 14 16 19 21 23 25 28 33 32 27 22 19 10 7 6 5 1 5 3 4 4 3
21 48 56 54 50 45 40 36 34 33 31 28 24 20 20 22 23 22 20 17 14 13 14 16 20 23 23 25 29 32 25 23 21 11 8 9 10 6 13 11 8 10 9
22 49 56 53 49 45 41 37 36 35 32 29 25 20 18 17 21 24 22 18 15 13 14 16 17 21 22 23 24 27 28 26 20 19 12 9 17 16 19 19 17 16 15
43 50 49 52 52 47 41 40 39 37 35 32 28 24 22 20 19 23 23 20 17 15 15 16 17 19 20 22 23 24 26 26 26 23 22 18 17 22 22 28 25 23 22
57 55 51 55 53 48 45 43 42 40 37 35 31 27 24 21 19 19 21 22 20 19 19 20 21 23 25 25 25 26 27 25 27 28 31 29 27 24 28 30 31 31 32
54 61 49 48 47 49 47 42 40 39 36 33 31 29 26 24 22 20 21 20 21 19 20 21 24 27 29 28 29 31 32 32 30 27 30 40 33 29 32 37 40 39 38
58 57 50 47 46 36 31 38 38 34 33 35 34 32 30 25 23 22 18 12 13 12 10 19 27 29 32 33 35 37 38 40 39 31 23 32 34 34 38 40 45 44 40
58 53 52 60 54 31 24 32 35 37 41 37 30 33 26 21 21 19 18 11 4 10 10 17 22 24 25 30 35 34 34 39 45 39 34 38 40 41 39 42 48 49 48
46 51 58 50 48 25 45 47 44 45 37 31 17 21 20 10 12 16 13 11 7 12 14 14 18 21 24 34 38 42 50 44 40 46 44 42 49 49 47 52 59 61 56
51 52 54 46 40 35 66 63 69 40 37 33 27 22 20 16 16 23 22 21 24 28 30 29 30 32 30 28 30 44 50 52 49 52 53 55 50 46 56 57 60 63 61
49 57 53 44 40 49 66 66 48 41 36 35 30 23 18 19 23 25 28 28 33 40 38 38 40 40 42 42 37 45 57 60 61 54 54 61 62 59 61 64 63 64 72
52 54 45 38 39 51 65 59 47 35 36 36 28 24 20 25 31 27 28 31 49 43 42 38 46 48 65 44 55 62 59 64 66 76 66 70 75 81 75 75 78 64 51
57 58 44 41 45 50 67 42 47 43 42 32 30 28 28 29 22 23 27 30 30 46 42 45 43 42 49 50 41 51 56 72 59 54 60 77 82 70 101 98 100 91 59
65 59 54 50 46 51 48 50 47 42 35 26 26 21 20 19 20 20 23 25 26 36 39 47 44 43 27 33 47 49 49 45 50 38 45 50 39 46 62 79 90 103 70
61 57 53 47 47 38 39 45 42 37 29 24 26 25 24 20 19 16 22 23 24 27 36 40 39 35 37 37 52 54 62 53 40 40 46 49 55 34 40 38 69 39 44
60 55 54 59 51 50 43 38 33 32 32 30 29 31 23 20 17 22 23 23 29 28 28 29 31 33 40 35 32 33 19 17 21 27 27 28 48 49 37 27 39 53 65
68 67 61 58 49 45 42 42 46 41 48 40 36 28 21 20 16 15 14 16 18 17 21 29 25 25 32 34 32 40 43 47 38 25 31 37 47 59 54 52 55 59 56
74 69 65 54 51 48 42 45 46 40 40 38 26 19 13 14 14 12 10 11 13 18 20 20 25 31 36 44 46 46 51 54 53 52 63 65 56 69 71 68 67 65 61
54 56 56 57 50 44 39 37 36 37 35 27 20 18 21 21 19 17 15 17 20 23 27 30 34 37 42 46 48 55 59 59 61 56 61 70 80 87 85 86 78 74 67
Wind_Direction_500mb
170 169 164 165 165 162 157 152 148 143 139 140 144 152 155 156 156 153 152 150 150 147 142 139 140 139 136 133 127 123 117 111 106 101 105 105 100 101 101 98 95 94 92
170 170 167 169 168 166 161 158 155 149 142 140 141 149 150 150 150 151 151 150 149 146 144 143 141 138 135 135 132 129 124 119 114 110 105 102 99 97 97 95 97 98 94
174 171 168 173 170 169 167 163 160 155 146 141 140 149 151 150 149 151 152 152 149 145 144 145 145 143 139 141 141 137 133 128 122 113 104 98 97 96 96 97 99 99 96
174 175 173 175 174 173 171 167 164 159 153 146 141 147 153 151 151 154 157 158 155 153 149 150 152 149 147 149 144 141 136 133 131 123 110 99 88 91 96 102 104 102 98
177 179 179 177 178 176 174 171 168 164 161 154 147 150 157 155 156 158 161 166 166 164 160 158 160 157 155 153 149 145 139 132 129 133 124 104 89 67 84 95 101 102 102
180 180 180 180 181 179 177 174 173 172 169 165 158 157 161 161 162 163 165 166 169 169 166 164 166 164 160 160 156 152 146 140 139 141 138 109 90 59 81 101 110 105 99
180 181 181 182 183 182 179 177 177 179 177 174 167 162 165 170 171 170 171 171 173 177 175 173 173 172 168 166 164 159 155 151 150 157 153 105 106 72 31 109 117 106 104
190 186 183 183 185 185 184 183 181 183 184 183 177 172 172 178 183 184 181 179 179 186 186 184 183 182 178 174 174 171 169 168 170 197 207 141 129 278 282 256 247 231 192
200 195 186 184 184 185 187 187 187 189 191 193 192 188 186 186 190 195 198 197 195 192 195 198 196 195 192 187 186 187 185 184 185 196 210 244 248 277 304 303 283 273 263
189 189 189 188 187 189 189 188 191 192 195 200 203 204 202 204 203 201 203 205 208 211 201 203 210 211 211 203 197 199 204 200 202 211 238 268 243 261 289 297 298 287 277
182 188 194 194 194 193 192 193 191 192 196 203 210 214 215 215 216 216 213 211 213 215 218 217 220 222 225 223 217 216 222 225 231 222 239 256 254 258 272 290 290 284 278
187 183 190 194 195 193 195 195 194 196 200 207 214 222 229 231 232 229 226 225 225 222 223 225 230 235 238 241 243 243 244 245 247 246 245 253 263 258 272 285 288 291 282
201 187 190 190 192 193 194 194 197 200 206 216 226 229 232 237 242 244 233 234 239 245 249 252 249 246 249 254 260 263 263 258 251 260 263 246 257 261 273 282 282 289 285
209 207 179 188 194 181 190 196 200 210 220 222 226 232 231 236 241 233 221 218 247 264 286 292 282 283 284 283 279 272 268 266 260 263 270 254 261 263 272 273 277 287 287
200 203 175 182 184 168 202 220 208 208 217 220 226 233 232 243 249 229 221 197 195 236 284 306 315 313 293 293 285 287 288 288 273 269 265 264 265 269 269 266 275 280 285
194 195 194 198 208 195 207 219 214 215 221 212 192 196 193 183 198 218 229 231 247 264 277 286 283 297 299 289 291 284 282 274 270 266 269 274 277 275 273 273 277 280 282
204 195 193 195 210 198 212 219 223 217 195 191 187 196 205 204 196 206 230 237 239 248 250 259 256 257 258 256 287 284 270 263 260 266 266 262 265 264 262 270 278 281 283
195 185 186 195 205 216 212 215 209 202 207 215 222 215 223 219 219 221 235 239 242 244 252 257 256 263 260 255 258 284 284 266 254 257 268 265 262 261 265 268 267 265 272
185 180 173 183 203 206 208 202 204 203 205 215 216 224 241 244 240 260 277 263 261 251 256 260 265 259 260 256 269 259 280 293 292 274 275 271 272 266 266 265 268 266 264
180 180 168 174 184 190 188 192 202 197 203 219 232 246 250 234 228 255 266 275 268 259 264 268 281 275 267 278 268 279 306 285 280 290 282 287 280 262 266 261 253 253 257
179 172 161 157 161 186 195 201 212 217 224 222 217 238 247 232 240 253 260 250 259 266 274 270 279 298 277 281 280 288 281 284 281 277 287 275 269 282 263 263 251 246 252
175 169 161 161 160 174 181 188 200 193 208 209 232 227 225 249 269 264 258 257 260 266 269 269 275 282 276 285 279 272 280 288 287 267 278 278 279 270 259 282 240 239 235
161 164 167 168 176 177 183 188 199 201 204 213 215 216 229 237 237 262 259 256 262 269 271 267 270 276 273 276 276 266 273 276 291 279 279 279 268 270 274 279 232 252 266
172 183 182 185 188 190 190 195 209 211 210 204 210 209 227 244 247 239 238 237 246 259 271 270 261 257 260 266 268 264 267 273 292 294 278 276 269 272 273 272 268 269 270
175 182 185 188 190 197 208 205 207 195 193 188 188 198 190 193 197 205 231 249 249 256 260 248 249 254 259 257 262 268 271 276 279 275 279 277 272 280 281 276 279 281 284
150 168 180 185 189 191 187 179 184 192 192 191 191 184 177 185 194 212 231 253 268 270 268 266 264 267 268 265 268 269 273 279 280 275 272 275 275 269 267 274 275 273 274
Wind_Speed_850mb
54 57 56 55 53 51 48 42 37 33 29 27 30 35 32 30 30 30 32 36 36 32 29 28 26 24 21 20 20 21 22 23 23 23 22 22 23 26 27 28 28 24 25
51 57 57 56 53 50 47 43 38 34 29 27 28 30 30 32 32 33 35 36 33 28 26 26 25 25 24 24 25 26 26 27 28 29 27 24 26 26 26 27 26 25 25
54 56 57 55 52 48 46 43 39 34 28 24 25 27 30 31 32 34 36 34 30 25 23 23 24 26 26 26 27 27 30 33 33 33 33 27 25 23 24 25 24 24 24
48 51 56 55 50 47 44 41 38 33 29 24 22 23 26 29 32 33 34 31 29 25 22 22 23 26 27 28 29 32 34 35 29 23 23 26 22 20 19 21 23 24 24
46 52 54 57 52 47 44 40 36 32 28 23 21 23 27 28 31 31 31 27 24 21 21 23 24 26 28 29 33 38 33 27 21 19 20 19 17 17 12 16 17 21 22
46 55 55 56 53 49 45 41 37 33 30 26 21 20 24 27 29 29 28 27 24 21 19 20 22 25 27 30 37 36 32 24 19 16 14 10 14 11 7 9 12 15 16
48 54 56 55 52 48 44 40 37 34 30 26 20 18 19 23 26 26 26 23 20 18 18 20 22 24 25 30 36 35 29 21 15 10 12 10 8 6 4 2 3 8 10
31 52 55 55 52 46 40 36 34 31 29 27 21 18 18 21 22 23 21 18 16 14 16 19 21 23 25 28 33 32 27 22 19 10 7 6 5 1 5 3 4 4 3
21 48 56 54 50 45 40 36 34 33 31 28 24 20 20 22 23 22 20 17 14 13 14 16 20 23 23 25 29 32 25 23 21 11 8 9 10 6 13 11 8 10 9
22 49 56 53 49 45 41 37 36 35 32 29 25 20 18 17 21 24 22 18 15 13 14 16 17 21 22 23 24 27 28 26 20 19 12 9 17 16 19 19 17 16 15
43 50 49 52 52 47 41 40 39 37 35 32 28 24 22 20 19 23 23 20 17 15 15 16 17 19 20 22 23 24 26 26 26 23 22 18 17 22 22 28 25 23 22
57 55 51 55 53 48 45 43 42 40 37 35 31 27 24 21 19 19 21 22 20 19 19 20 21 23 25 25 25 26 27 25 27 28 31 29 27 24 28 30 31 31 32
54 61 49 48 47 49 47 42 40 39 36 33 31 29 26 24 22 20 21 20 21 19 20 21 24 27 29 28 29 31 32 32 30 27 30 40 33 29 32 37 40 39 38
58 57 50 47 46 36 31 38 38 34 33 35 34 32 30 25 23 22 18 12 13 12 10 19 27 29 32 33 35 37 38 40 39 31 23 32 34 34 38 40 45 44 40
58 53 52 60 54 31 24 32 35 37 41 37 30 33 26 21 21 19 18 11 4 10 10 17 22 24 25 30 35 34 34 39 45 39 34 38 40 41 39 42 48 49 48
46 51 58 50 48 25 45 47 44 45 37 31 17 21 20 10 12 16 13 11 7 12 14 14 18 21 24 34 38 42 50 44 40 46 44 42 49 49 47 52 59 61 56
51 52 54 46 40 35 66 63 69 40 37 33 27 22 20 16 16 23 22 21 24 28 30 29 30 32 30 28 30 44 50 52 49 52 53 55 50 46 56 57 60 63 61
49 57 53 44 40 49 66 66 48 41 36 35 30 23 18 19 23 25 28 28 33 40 38 38 40 40 42 42 37 45 57 60 61 54 54 61 62 59 61 64 63 64 72
52 54 45 38 39 51 65 59 47 35 36 36 28 24 20 25 31 27 28 31 49 43 42 38 46 48 65 44 55 62 59 64 66 76 66 70 75 81 75 75 78 64 51
57 58 44 41 45 50 67 42 47 43 42 32 30 28 28 29 22 23 27 30 30 46 42 45 43 42 49 50 41 51 56 72 59 54 60 77 82 70 101 98 100 91 59
65 59 54 50 46 51 48 50 47 42 35 26 26 21 20 19 20 20 23 25 26 36 39 47 44 43 27 33 47 49 49 45 50 38 45 50 39 46 62 79 90 103 70
61 57 53 47 47 38 39 45 42 37 29 24 26 25 24 20 19 16 22 23 24 27 36 40 39 35 37 37 52 54 62 53 40 40 46 49 55 34 40 38 69 39 44
60 55 54 59 51 50 43 38 33 32 32 30 29 31 23 20 17 22 23 23 29 28 28 29 31 33 40 35 32 33 19 17 21 27 27 28 48 49 37 27 39 53 65
68 67 61 58 49 45 42 42 46 41 48 40 36 28 21 20 16 15 14 16 18 17 21 29 25 25 32 34 32 40 43 47 38 25 31 37 47 59 54 52 55 59 56
74 69 65 54 51 48 42 45 46 40 40 38 26 19 13 14 14 12 10 11 13 18 20 20 25 31 36 44 46 46 51 54 53 52 63 65 56 69 71 68 67 65 61
54 56 56 57 50 44 39 37 36 37 35 27 20 18 21 21 19 17 15 17 20 23 27 30 34 37 42 46 48 55 59 59 61 56 61 70 80 87 85 86 78 74 67
Wind_Direction_850mb
170 169 164 165 165 162 157 152 148 143 139 140 144 152 155 156 156 153 152 150 150 147 142 139 140 139 136 133 127 123 117 111 106 101 105 105 100 101 101 98 95 94 92
170 170 167 169 168 166 161 158 155 149 142 140 141 149 150 150 150 151 151 150 149 146 144 143 141 138 135 135 132 129 124 119 114 110 105 102 99 97 97 95 97 98 94
174 171 168 173 170 169 167 163 160 155 146 141 140 149 151 150 149 151 152 152 149 145 144 145 145 143 139 141 141 137 133 128 122 113 104 98 97 96 96 97 99 99 96
174 175 173 175 174 173 171 167 164 159 153 146 141 147 153 151 151 154 157 158 155 153 149 150 152 149 147 149 144 141 136 133 131 123 110 99 88 91 96 102 104 102 98
177 179 179 177 178 176 174 171 168 164 161 154 147 150 157 155 156 158 161 166 166 164 160 158 160 157 155 153 149 145 139 132 129 133 124 104 89 67 84 95 101 102 102
180 180 180 180 181 179 177 174 173 172 169 165 158 157 161 161 162 163 165 166 169 169 166 164 166 164 160 160 156 152 146 140 139 141 138 109 90 59 81 101 110 105 99
180 181 181 182 183 182 179 177 177 179 177 174 167 162 165 170 171 170 171 171 173 177 175 173 173 172 168 166 164 159 155 151 150 157 153 105 106 72 31 109 117 106 104
190 186 183 183 185 185 184 183 181 183 184 183 177 172 172 178 183 184 181 179 179 186 186 184 183 182 178 174 174 171 169 168 170 197 207 141 129 278 282 256 247 231 192
200 195 186 184 184 185 187 187 187 189 191 193 192 188 186 186 190 195 198 197 195 192 195 198 196 195 192 187 186 187 185 184 185 196 210 244 248 277 304 303 283 273 263
189 189 189 188 187 189 189 188 191 192 195 200 203 204 202 204 203 201 203 205 208 211 201 203 210 211 211 203 197 199 204 200 202 211 238 268 243 261 289 297 298 287 277
182 188 194 194 194 193 192 193 191 192 196 203 210 214 215 215 216 216 213 211 213 215 218 217 220 222 225 223 217 216 222 225 231 222 239 256 254 258 272 290 290 284 278
187 183 190 194 195 193 195 195 194 196 200 207 214 222 229 231 232 229 226 225 225 222 223 225 230 235 238 241 243 243 244 245 247 246 245 253 263 258 272 285 288 291 282
201 187 190 190 192 193 194 194 197 200 206 216 226 229 232 237 242 244 233 234 239 245 249 252 249 246 249 254 260 263 263 258 251 260 263 246 257 261 273 282 282 289 285
209 207 179 188 194 181 190 196 200 210 220 222 226 232 231 236 241 233 221 218 247 264 286 292 282 283 284 283 279 272 268 266 260 263 270 254 261 263 272 273 277 287 287
200 203 175 182 184 168 202 220 208 208 217 220 226 233 232 243 249 229 221 197 195 236 284 306 315 313 293 293 285 287 288 288 273 269 265 264 265 269 269 266 275 280 285
194 195 194 198 208 195 207 219 214 215 221 212 192 196 193 183 198 218 229 231 247 264 277 286 283 297 299 289 291 284 282 274 270 266 269 274 277 275 273 273 277 280 282
204 195 193 195 210 198 212 219 223 217 195 191 187 196 205 204 196 206 230 237 239 248 250 259 256 257 258 256 287 284 270 263 260 266 266 262 265 264 262 270 278 281 283
195 185 186 195 205 216 212 215 209 202 207 215 222 215 223 219 219 221 235 239 242 244 252 257 256 263 260 255 258 284 284 266 254 257 268 265 262 261 265 268 267 265 272
185 180 173 183 203 206 208 202 204 203 205 215 216 224 241 244 240 260 277 263 261 251 256 260 265 259 260 256 269 259 280 293 292 274 275 271 272 266 266 265 268 266 264
180 180 168 174 184 190 188 192 202 197 203 219 232 246 250 234 228 255 266 275 268 259 264 268 281 275 267 278 268 279 306 285 280 290 282 287 280 262 266 261 253 253 257
179 172 161 157 161 186 195 201 212 217 224 222 217 238 247 232 240 253 260 250 259 266 274 270 279 298 277 281 280 288 281 284 281 277 287 275 269 282 263 263 251 246 252
175 169 161 161 160 174 181 188 200 193 208 209 232 227 225 249 269 264 258 257 260 266 269 269 275 282 276 285 279 272 280 288 287 267 278 278 279 270 259 282 240 239 235
161 164 167 168 176 177 183 188 199 201 204 213 215 216 229 237 237 262 259 256 262 269 271 267 270 276 273 276 276 266 273 276 291 279 279 279 268 270 274 279 232 252 266
172 183 182 185 188 190 190 195 209 211 210 204 210 209 227 244 247 239 238 237 246 259 271 270 261 257 260 266 268 264 267 273 292 294 278 276 269 272 273 272 268 269 270
175 182 185 188 190 197 208 205 207 195 193 188 188 198 190 193 197 205 231 249 249 256 260 248 249 254 259 257 262 268 271 276 279 275 279 277 272 280 281 276 279 281 284
150 168 180 185 189 191 187 179 184 192 192 191 191 184 177 185 194 212 231 253 268 270 268 266 264 267 268 265 268 269 273 279 280 275 272 275 275 269 267 274 275 273 274